Tracking 35331 objects as of 16-Sep-2026
HD Live streaming from Space Station
objects crossing your sky now

SL-4 DEB


SL-4 DEB is no longer on orbit


NORAD ID: 7830
Int'l Code: 1975-046C
Launch date: May 28, 1975
Source: Commonwealth of Independent States (former USSR) (CIS)
Launch site: TYURATAM MISSILE AND SPACE COMPLEX (TTMTR)
Decay date: 1975-06-04

Note: This is SATELLITE DEBRIS
Your satellite tracking list
Your tracking list is empty




NASA's NSSDC Master Catalog

Two Line Element Set (TLE):
1 07830U 75046  C 75148.67806143  .00097747 +00000-0 +31278-4 0  9999
2 07830 065.1313 032.4963 0064337 078.4101 282.4240 16.20192521000067
Source of the keplerian elements: AFSPC